sat.trackr.live / text

‹ back to catalog

STARLINK-35709

NORAD 66216 · 2025-244L

PAYLOAD ACTIVE UNKNOWN

§ Identity

Operator
Country
US
Launch date
2025-10-28
Launch site
AFWTR
Launch vehicle
Mass (kg)
RCS (m²)

Purposes: comms

External: N2YO · Heavens-Above · Gunter

§ Orbital elements

Epoch: 2026-09-20T16:05:17.259360Z

Period
93.85 min
Inclination
53.1667°
Eccentricity
0.0000423
Mean motion
15.34399300 rev/d
Perigee alt
462.4 km
Apogee alt
463.0 km
Semi-major
6,840.8 km
B*
3.4235e-4
RAAN
42.7129°
Arg perigee
329.9504°
Mean anomaly
30.1474°
Rev number
5,153

§ Raw data

STARLINK-357091 66216U 25244L   26263.67033865  .00011208  00000+0  34235-3 0  99962 66216  53.1667  42.7129 0000423 329.9504  30.1474 15.34399300 51537

JSON: /api/v1/satellites/66216 · /tle

For live sub-satellite position, see the globe view (requires WebGL).

§ Visibility from observer

Set your observer location to see the next 7 days of passes ≥ 10°. The values pass through the URL so the page stays shareable.

No JS? Fill the form by hand. The geolocation button needs JavaScript.